Location: Del Amo
(33.8464°N, 118.2104°W)
Time: 19:52:38
(UTC+00:00)

S-56A Canister/Altair - Pass Details

Date: 14 September 2024
Orbit: 636 x 2487 km, 38.9° (Epoch: 14 October)

Event Time Altitude Azimuth Distance (km) Brightness Sun altitude
Rises 08:30:50 0° 291° (WNW) 4,621 - -51.7°
Reaches altitude 10° 08:33:35 10° 287° (WNW) 3,862 - -51.5°
Maximum altitude 08:43:55 57° 212° (SSW) 2,377 - -50.7°
Drops below altitude 10° 08:57:52 10° 139° (SE) 5,088 - -49.5°
Exits shadow 09:01:25 - 136° (SE) 5,973 11.9 -49.2°
Sets 09:02:07 0° 136° (SE) 6,147 12.0 -49.1°
